Wind_Speed
23 23 23 23 24 24 23 23 22 21 19 17 16 15 15 13 12 11 9 8 6 4 4 3 4 5 6 6 7 9 10 10 10 10 9 10 10 10 10 11 10 10 9 9 9 8 8 8 7
22 22 22 23 23 24 24 23 23 21 20 18 17 17 16 14 13 11 10 9 7 6 5 4 4 5 6 7 8 10 10 10 10 9 9 9 9 10 10 10 10 10 9 8 8 7 8 7 6
22 22 22 22 23 24 24 24 23 22 21 20 19 18 17 15 13 12 11 9 8 6 6 5 5 5 7 8 8 10 9 9 9 9 9 9 9 9 10 9 9 9 8 7 7 7 7 7 6
22 22 22 22 23 24 24 24 23 22 22 21 20 19 17 16 14 13 11 10 8 8 8 7 6 7 8 8 8 9 8 9 8 8 9 9 8 9 8 8 8 8 8 7 7 7 7 7 7
20 22 22 23 23 24 24 24 23 23 23 21 20 19 17 16 15 14 12 11 9 9 9 9 8 7 8 8 9 9 8 8 8 8 8 8 8 8 7 7 7 8 7 7 7 7 7 7 6
19 20 22 23 23 24 24 24 24 24 23 21 20 19 18 16 16 15 13 12 11 10 10 10 9 9 9 8 8 8 8 7 7 8 8 7 7 6 7 7 6 7 7 7 7 7 7 6 7
18 19 21 23 23 24 24 25 25 23 22 21 20 19 18 17 16 15 13 13 12 11 11 10 10 9 9 9 8 8 8 7 6 7 7 7 7 6 6 6 6 7 7 7 7 7 6 7 7
16 17 20 22 22 23 24 25 25 23 22 21 20 19 18 17 17 16 14 13 13 12 11 10 9 9 9 9 8 8 7 7 6 6 7 7 6 6 6 6 6 6 7 7 7 7 6 6 6
13 15 17 20 21 22 23 24 24 23 22 21 20 19 18 18 17 16 15 14 13 13 12 11 9 9 9 8 8 8 7 7 6 6 6 7 6 6 6 6 6 7 7 6 6 6 6 6 6
11 13 15 17 19 20 21 22 23 23 23 22 21 20 18 18 17 16 16 15 14 13 12 11 10 10 9 8 8 8 7 7 6 6 6 7 7 7 6 6 5 6 7 6 6 5 5 6 5
8 10 11 14 16 17 19 20 21 22 23 22 21 20 19 18 18 17 16 15 14 14 13 11 11 10 9 8 8 8 7 7 6 6 6 6 6 6 6 6 6 6 5 5 5 4 5 5 5
4 7 9 11 13 15 17 18 19 20 21 21 20 20 19 18 18 19 18 17 15 14 13 12 11 10 9 9 8 8 7 7 6 5 6 5 6 6 6 6 6 5 5 4 4 5 5 5 5
2 4 7 9 11 13 14 16 17 18 19 19 19 19 18 18 18 18 18 18 16 14 13 12 11 10 10 10 9 8 8 7 6 5 5 5 5 5 5 5 5 5 4 4 4 4 4 4 5
4 1 3 6 8 10 11 13 14 15 16 17 17 18 18 17 17 17 17 17 16 15 14 13 12 11 10 10 10 9 8 7 6 5 5 5 5 5 5 5 4 4 3 3 3 4 4 4 5
7 4 1 2 5 7 8 10 11 12 14 15 16 16 16 16 16 16 16 16 15 15 14 13 12 11 10 9 8 8 7 6 5 5 5 4 4 4 4 4 3 3 3 3 4 4 4 4 5
10 7 4 2 3 5 6 8 8 9 11 13 13 14 15 15 14 15 15 14 14 14 13 12 12 12 11 9 8 7 7 6 5 4 4 4 3 3 3 3 3 3 4 4 5 5 4 5 5
12 9 7 6 4 4 4 5 6 7 9 11 11 12 12 13 13 13 14 14 13 13 12 11 11 11 11 10 9 7 7 5 5 5 3 3 2 2 2 3 3 3 4 4 5 5 5 5 6
14 13 10 8 6 6 5 4 4 6 8 9 9 9 10 11 13 13 13 14 13 13 11 10 10 10 10 9 8 8 7 7 6 5 3 3 2 1 2 2 2 3 4 5 5 6 6 7 7
17 16 13 10 9 9 7 5 4 6 7 7 8 8 9 10 11 12 12 13 13 12 11 10 10 10 9 9 8 8 8 7 6 5 4 3 1 1 2 3 3 4 4 5 6 7 7 8 8
20 18 16 13 13 12 11 9 7 7 7 7 7 8 8 8 9 10 11 11 11 10 10 10 8 9 8 7 7 7 7 7 7 6 5 4 2 1 1 2 3 4 5 6 6 7 7 7 8
22 20 18 16 16 15 15 13 10 8 7 7 7 8 7 7 6 7 9 10 9 9 8 8 7 7 7 6 6 6 6 6 6 5 4 4 3 3 3 3 4 5 6 6 6 7 8 8 9
23 22 21 20 19 19 18 16 12 11 9 8 7 7 7 7 7 7 8 9 8 8 7 6 6 5 5 5 5 5 4 4 4 4 4 4 3 3 3 4 4 4 6 6 6 6 7 8 9
25 24 24 23 23 22 20 19 15 14 13 11 9 8 8 8 8 8 8 8 8 7 7 6 5 5 4 5 4 3 3 3 3 3 3 3 3 3 3 4 5 5 5 5 6 7 7 8 8
27 25 25 26 25 24 21 21 18 16 16 14 12 10 9 9 9 9 9 9 8 7 7 6 6 6 5 4 5 4 4 4 4 4 3 3 3 4 4 4 5 5 5 5 6 7 7 7 8
28 27 26 27 26 25 23 24 20 18 18 17 16 13 12 12 12 10 10 11 10 9 9 9 8 7 6 6 5 5 6 5 5 5 5 5 5 5 5 5 6 6 7 6 7 7 8 8 8
28 28 28 28 28 26 25 25 22 20 20 19 18 16 14 14 13 12 12 13 12 11 12 11 10 9 8 7 7 7 7 6 6 6 7 7 7 7 7 7 8 8 8 8 8 8 8 9 9
28 29 29 29 28 29 29 28 25 22 21 20 18 17 16 15 13 13 13 14 14 14 13 13 12 12 11 10 9 9 8 9 9 8 8 8 8 8 9 9 10 10 10 10 9 10 10 10 11
29 29 28 29 30 30 30 28 25 23 21 20 19 18 16 16 15 15 15 16 16 15 15 14 14 14 14 13 13 11 11 11 11 11 10 10 10 10 11 11 11 11 11 12 12 12 12 13 13
30 30 30 31 31 32 31 29 26 25 22 21 20 18 17 17 16 17 18 18 17 17 17 16 17 16 16 16 15 14 14 14 14 14 14 13 12 13 13 14 13 13 13 13 14 15 15 15 15
32 32 31 31 31 32 33 31 27 26 25 22 21 20 18 18 18 18 19 20 19 19 18 18 19 20 19 18 18 17 18 19 18 17 16 16 15 15 15 16 15 15 15 15 16 16 16 17 17
Wind_Direction
57 56 54 54 55 55 53 52 49 47 44 42 42 42 43 42 43 44 43 43 48 53 51 75 113 127 131 121 117 120 135 138 136 133 136 138 140 142 144 142 141 144 147 147 148 151 152 146 145
56 57 55 53 54 54 53 52 49 46 43 42 43 42 41 41 42 43 43 46 52 55 62 80 101 119 121 111 115 121 128 133 132 130 134 140 141 141 141 139 140 145 147 146 150 155 156 154 151
55 56 55 54 53 53 53 52 50 47 45 43 43 43 41 41 41 43 45 49 53 61 73 85 98 110 112 110 113 119 126 133 133 130 133 138 140 138 139 140 145 149 147 146 148 154 158 161 162
56 56 55 53 52 52 52 52 51 48 46 44 44 43 42 42 43 46 50 53 55 67 80 90 99 108 113 113 116 117 125 130 131 128 132 135 138 139 139 143 148 150 150 149 151 152 158 163 165
56 57 55 55 53 52 52 51 51 49 46 43 44 45 42 42 42 46 51 54 60 71 80 90 95 103 106 108 113 116 119 124 130 129 131 134 137 144 145 145 147 148 150 150 156 157 162 167 165
54 56 56 55 54 54 52 51 50 48 46 43 44 45 43 40 41 44 50 56 62 71 79 89 97 101 103 108 114 118 118 120 127 132 132 134 140 143 143 152 150 155 157 159 157 157 162 167 170
52 56 57 56 54 52 51 50 49 48 46 44 44 46 44 42 41 44 51 59 64 69 76 84 94 100 102 106 111 116 117 117 125 132 136 138 141 146 142 152 157 165 165 164 162 162 167 165 165
53 56 58 57 54 51 50 50 49 47 46 45 45 45 44 42 42 46 52 59 63 66 71 79 89 96 101 104 106 111 114 116 122 133 138 142 145 150 151 157 163 168 166 165 169 171 170 165 163
54 54 57 57 55 52 50 49 49 48 46 45 46 45 43 41 42 46 52 56 59 63 69 75 81 89 97 105 109 111 113 114 119 130 139 148 155 158 161 159 165 168 168 167 168 166 169 169 170
55 54 57 57 56 52 49 47 47 46 45 44 44 45 44 43 44 48 52 57 58 61 67 72 75 82 90 98 103 108 116 117 118 125 135 146 151 156 162 155 152 160 165 169 170 175 177 177 178
55 51 58 57 54 50 48 46 44 44 43 42 42 42 41 42 44 47 50 55 57 60 65 69 73 77 82 89 97 101 110 116 116 123 136 139 142 145 149 147 144 151 157 170 175 179 180 181 181
44 44 53 56 54 49 47 45 43 42 41 40 40 40 40 41 43 46 48 51 54 57 60 66 70 73 78 83 91 98 102 111 117 120 130 140 146 147 148 149 148 151 155 163 168 172 176 186 189
338 37 42 52 55 51 46 44 43 41 39 37 38 38 39 40 43 45 47 50 53 54 57 62 69 72 77 81 86 91 93 104 110 110 120 133 143 152 161 161 159 160 158 168 173 176 193 200 200
274 333 30 46 48 47 44 43 42 40 37 34 34 35 35 36 39 40 43 47 50 52 55 60 65 68 73 78 82 83 83 88 98 108 118 131 142 153 165 163 163 170 171 183 195 201 205 208 211
259 260 277 30 32 35 39 42 40 36 30 29 31 32 32 32 35 37 41 44 45 49 53 58 63 69 73 77 80 80 79 81 87 101 119 127 140 152 166 171 185 195 197 202 205 208 213 216 218
250 253 256 291 353 11 25 39 34 28 21 21 27 29 29 29 30 33 35 39 43 47 51 57 61 66 69 72 75 79 77 72 79 96 116 132 143 152 171 189 203 216 218 219 222 219 224 229 229
242 250 255 266 298 325 356 24 19 12 8 9 17 23 25 25 26 29 31 32 36 44 51 56 60 62 65 64 67 71 70 70 77 91 103 122 146 155 178 206 215 221 223 228 232 232 236 239 237
240 247 249 260 278 289 319 356 3 356 357 355 1 12 16 19 21 24 28 30 30 35 46 53 56 57 63 63 63 65 70 73 82 87 95 117 136 172 192 214 225 230 230 233 238 238 246 248 245
238 244 248 253 263 272 286 304 324 334 343 346 355 360 8 10 15 18 18 22 25 28 33 43 48 52 55 58 58 57 62 67 73 73 80 81 126 205 216 233 246 250 251 245 246 250 249 250 247
237 242 246 250 258 266 271 279 289 310 323 334 342 348 356 1 9 10 11 11 15 19 24 32 37 46 49 52 53 53 56 61 64 64 55 45 36 350 274 244 256 262 259 253 253 257 249 250 249
237 242 243 246 252 261 265 266 273 294 297 311 324 328 331 342 349 353 358 1 3 7 13 22 27 35 38 43 46 51 51 52 56 56 46 35 31 19 350 318 291 283 265 257 257 257 251 256 256
238 242 244 246 252 259 263 264 265 275 282 290 305 313 315 319 319 324 338 345 349 351 357 5 11 20 24 27 30 39 42 41 39 40 36 26 17 357 332 320 316 299 273 263 266 257 256 261 260
239 242 245 248 252 256 260 265 264 267 275 281 290 293 295 303 303 307 317 325 332 336 340 347 348 356 0 7 12 16 18 15 10 13 11 1 351 340 322 317 318 309 289 275 271 262 263 264 262
240 242 245 248 252 255 260 267 267 268 274 277 280 279 284 287 288 291 298 308 313 313 318 321 324 329 336 343 350 349 342 338 334 334 336 332 336 333 327 319 313 305 294 282 276 271 271 269 268
241 243 244 247 251 257 262 266 269 270 273 274 273 266 271 273 274 276 285 294 299 297 298 299 303 309 318 318 320 329 332 324 317 318 316 314 313 316 317 318 313 302 291 285 283 274 269 268 271
241 244 245 249 253 257 260 266 270 269 271 271 272 270 271 268 270 271 277 285 290 290 289 290 288 291 293 297 299 305 315 309 297 301 304 303 302 303 305 309 309 305 295 287 284 280 274 272 274
240 242 246 249 253 258 261 267 269 272 273 269 269 271 269 265 267 270 271 277 282 281 281 282 282 284 286 284 282 284 293 296 292 291 291 294 294 298 300 301 304 304 297 290 284 281 280 278 277
241 242 244 249 253 258 263 267 269 272 270 269 270 269 265 261 264 265 265 268 276 279 277 272 274 275 276 277 273 272 281 286 287 286 284 284 285 289 292 293 297 300 297 289 284 280 279 284 282
241 243 245 249 254 258 263 266 270 273 272 272 272 272 269 264 265 264 263 265 268 270 271 272 272 272 271 273 274 271 272 276 281 282 285 285 280 282 286 285 288 290 291 290 286 283 280 282 282
242 244 247 251 255 259 262 266 270 274 273 273 272 272 273 271 266 266 265 265 270 272 274 273 276 276 272 271 271 270 272 273 274 278 280 282 280 279 282 284 286 288 289 289 286 285 282 282 282
Height
5883 5882 5880 5879 5877 5874 5871 5870 5868 5866 5865 5864 5862 5861 5860 5859 5859 5861 5858 5855 5855 5855 5854 5853 5853 5853 5853 5853 5854 5854 5855 5858 5860 5862 5863 5865 5866 5868 5869 5871 5872 5874 5875 5877 5879 5880 5882 5883 5884
5886 5885 5884 5882 5879 5876 5874 5872 5870 5869 5868 5866 5864 5862 5861 5860 5859 5858 5857 5856 5856 5855 5854 5854 5854 5854 5854 5855 5855 5856 5857 5859 5861 5863 5864 5866 5867 5869 5870 5872 5873 5875 5876 5878 5879 5881 5882 5884 5885
5889 5888 5887 5884 5881 5879 5877 5875 5873 5871 5869 5868 5866 5864 5863 5862 5861 5859 5858 5857 5857 5856 5855 5855 5854 5854 5855 5856 5857 5858 5859 5861 5863 5864 5865 5867 5868 5870 5871 5873 5874 5876 5877 5878 5880 5881 5883 5884 5885
5892 5891 5889 5887 5884 5882 5879 5877 5875 5873 5872 5870 5868 5866 5865 5864 5863 5861 5860 5859 5858 5857 5856 5856 5856 5856 5856 5858 5859 5859 5861 5862 5864 5865 5867 5868 5869 5871 5872 5874 5875 5876 5878 5879 5881 5882 5883 5884 5886
5895 5893 5892 5889 5886 5884 5882 5879 5877 5875 5874 5873 5871 5869 5868 5866 5865 5863 5861 5860 5860 5859 5858 5857 5858 5858 5858 5859 5860 5861 5862 5863 5865 5866 5867 5869 5870 5872 5873 5875 5876 5877 5878 5880 5881 5882 5884 5885 5886
5898 5896 5894 5891 5889 5887 5884 5882 5880 5878 5877 5875 5874 5872 5870 5869 5867 5865 5863 5862 5861 5861 5860 5860 5860 5860 5860 5861 5862 5863 5864 5865 5866 5867 5868 5870 5871 5873 5874 5875 5876 5877 5879 5880 5882 5883 5884 5885 5886
5900 5898 5896 5894 5892 5890 5887 5884 5882 5881 5880 5878 5877 5875 5873 5872 5869 5867 5866 5864 5863 5862 5862 5861 5861 5861 5862 5862 5863 5864 5865 5866 5867 5868 5869 5871 5872 5874 5875 5876 5877 5878 5879 5881 5882 5883 5885 5886 5887
5901 5901 5898 5896 5894 5893 5891 5888 5886 5884 5883 5881 5879 5877 5876 5874 5872 5870 5868 5866 5865 5865 5864 5863 5863 5863 5863 5864 5865 5865 5866 5867 5868 5869 5870 5871 5873 5874 5875 5877 5878 5879 5880 5881 5883 5884 5885 5886 5887
5903 5903 5900 5899 5897 5896 5894 5891 5889 5888 5886 5884 5882 5880 5879 5877 5874 5872 5870 5869 5868 5867 5866 5865 5865 5865 5865 5866 5866 5867 5867 5868 5869 5870 5870 5872 5873 5874 5876 5877 5878 5879 5880 5882 5883 5884 5885 5886 5887
5904 5904 5903 5901 5900 5899 5897 5895 5893 5891 5889 5887 5886 5884 5882 5880 5877 5875 5873 5871 5870 5869 5868 5867 5867 5867 5867 5867 5867 5868 5868 5869 5870 5870 5871 5872 5873 5874 5876 5877 5878 5879 5880 5882 5883 5885 5886 5887 5888
5905 5905 5904 5903 5902 5901 5899 5898 5896 5894 5892 5891 5889 5887 5885 5883 5880 5878 5876 5874 5873 5871 5870 5870 5869 5869 5869 5869 5869 5869 5870 5871 5871 5872 5872 5873 5874 5875 5877 5878 5879 5879 5881 5882 5884 5885 5886 5887 5888
5907 5906 5906 5905 5904 5903 5902 5901 5899 5897 5896 5894 5892 5890 5888 5886 5883 5881 5879 5877 5875 5874 5873 5872 5871 5871 5871 5870 5870 5871 5871 5872 5873 5873 5874 5875 5876 5877 5878 5879 5880 5881 5882 5883 5884 5885 5886 5887 5888
5907 5907 5907 5906 5905 5905 5904 5903 5902 5900 5899 5897 5895 5893 5891 5889 5887 5884 5882 5880 5879 5877 5875 5874 5873 5873 5872 5872 5872 5872 5873 5873 5874 5874 5875 5876 5877 5878 5879 5880 5881 5881 5882 5883 5884 5885 5886 5887 5888
5907 5907 5907 5907 5906 5906 5905 5905 5903 5902 5901 5900 5898 5896 5894 5892 5890 5887 5885 5883 5881 5880 5878 5877 5875 5875 5874 5874 5874 5874 5874 5875 5875 5875 5876 5877 5878 5878 5879 5880 5881 5882 5883 5883 5884 5885 5886 5887 5888
5906 5907 5907 5907 5907 5906 5906 5906 5905 5904 5903 5902 5900 5898 5896 5895 5892 5890 5887 5885 5884 5882 5880 5879 5878 5877 5876 5876 5875 5876 5876 5876 5876 5876 5877 5878 5878 5879 5880 5880 5881 5882 5883 5883 5884 5885 5886 5887 5887
5905 5906 5907 5907 5907 5907 5908 5907 5906 5905 5904 5903 5902 5900 5898 5896 5895 5893 5890 5888 5886 5884 5882 5881 5880 5879 5878 5878 5877 5877 5877 5877 5877 5877 5877 5878 5879 5879 5880 5880 5881 5882 5882 5883 5884 5884 5885 5886 5886
5904 5904 5905 5906 5906 5906 5906 5906 5906 5905 5905 5904 5902 5901 5900 5898 5897 5895 5893 5891 5889 5886 5885 5883 5882 5881 5880 5880 5879 5878 5877 5877 5877 5877 5878 5878 5879 5879 5880 5880 5881 5881 5882 5882 5883 5883 5884 5885 5885
5902 5903 5904 5905 5905 5906 5906 5906 5906 5905 5905 5904 5903 5902 5901 5899 5898 5896 5894 5893 5891 5889 5887 5885 5884 5883 5882 5881 5880 5880 5879 5878 5878 5878 5879 5879 5879 5879 5880 5880 5880 5881 5881 5882 5882 5882 5883 5883 5884
5900 5901 5902 5903 5904 5904 5904 5905 5905 5904 5904 5903 5903 5902 5901 5900 5899 5897 5896 5894 5893 5891 5889 5887 5886 5885 5884 5883 5882 5881 5880 5880 5880 5880 5879 5879 5879 5879 5879 5880 5880 5880 5880 5880 5881 5881 5882 5882 5883
5897 5899 5900 5901 5902 5902 5902 5903 5904 5904 5904 5903 5903 5902 5901 5900 5899 5898 5896 5895 5894 5892 5891 5889 5887 5886 5885 5884 5883 5882 5881 5881 5881 5881 5880 5880 5879 5879 5879 5879 5879 5879 5879 5879 5879 5880 5880 5880 5881
5894 5896 5898 5899 5899 5899 5900 5901 5902 5903 5902 5903 5902 5902 5900 5900 5899 5898 5897 5896 5894 5893 5891 5890 5889 5887 5886 5885 5884 5883 5883 5882 5882 5882 5881 5880 5880 5879 5879 5878 5878 5878 5878 5878 5878 5878 5878 5879 5879
5892 5893 5894 5895 5896 5896 5898 5898 5900 5901 5901 5901 5901 5901 5900 5899 5898 5898 5897 5895 5894 5893 5892 5891 5890 5888 5887 5886 5885 5884 5883 5883 5883 5882 5881 5881 5880 5879 5879 5878 5877 5876 5876 5876 5876 5876 5877 5877 5877
5888 5889 5890 5891 5892 5893 5894 5894 5897 5898 5899 5899 5900 5899 5898 5898 5897 5897 5896 5894 5893 5892 5892 5891 5890 5889 5887 5886 5885 5885 5884 5883 5883 5882 5881 5881 5880 5879 5878 5878 5877 5876 5875 5875 5875 5875 5875 5875 5875
5883 5885 5886 5886 5887 5889 5891 5891 5893 5894 5896 5896 5897 5897 5896 5896 5896 5895 5894 5893 5892 5891 5891 5890 5889 5888 5887 5886 5885 5884 5883 5883 5882 5882 5881 5880 5879 5879 5878 5877 5876 5875 5874 5874 5873 5873 5873 5873 5873
5879 5881 5881 5882 5883 5885 5887 5887 5890 5891 5892 5893 5893 5893 5893 5893 5893 5893 5892 5891 5890 5890 5889 5888 5888 5887 5886 5885 5884 5884 5883 5882 5881 5881 5880 5880 5879 5878 5877 5876 5875 5874 5873 5873 5872 5872 5871 5871 5871
5874 5876 5877 5878 5879 5881 5882 5882 5886 5887 5888 5888 5889 5889 5889 5889 5890 5890 5889 5889 5888 5888 5887 5887 5886 5885 5884 5883 5882 5882 5881 5880 5879 5879 5879 5878 5877 5877 5876 5875 5874 5873 5872 5871 5871 5870 5870 5869 5868
5868 5870 5872 5873 5874 5875 5876 5878 5881 5882 5882 5883 5884 5885 5885 5886 5886 5886 5886 5886 5885 5885 5884 5884 5883 5882 5881 5881 5880 5879 5879 5878 5877 5877 5877 5876 5876 5875 5875 5874 5872 5871 5870 5869 5869 5868 5868 5867 5866
5863 5865 5867 5867 5868 5869 5871 5873 5875 5877 5878 5879 5880 5880 5881 5881 5882 5882 5882 5882 5881 5881 5880 5880 5879 5879 5878 5877 5876 5876 5876 5876 5875 5874 5874 5874 5873 5873 5872 5872 5870 5869 5868 5867 5866 5866 5865 5864 5863
5857 5859 5860 5862 5863 5864 5865 5870 5871 5872 5873 5874 5875 5875 5876 5877 5877 5878 5877 5877 5877 5876 5876 5875 5874 5874 5874 5873 5872 5873 5873 5872 5872 5871 5871 5870 5870 5869 5869 5868 5867 5866 5865 5864 5863 5863 5862 5861 5860
5851 5853 5855 5857 5858 5859 5860 5865 5865 5866 5868 5868 5869 5870 5871 5871 5871 5872 5872 5872 5872 5872 5871 5871 5870 5870 5869 5869 5868 5868 5869 5868 5868 5867 5867 5866 5866 5865 5865 5864 5864 5863 5862 5861 5859 5859 5858 5857 5856